2024-174F

Last updated on Fri Oct 04 2024 00:02:05 GMT+0000 (Coordinated Universal Time)

1 61263U 24174F 24277.58690563 .00213450 13857-4 14597-2 0 9991 2 61263 97.4338 283.2108 0178879 359.9284 0.1913 15.56038106 1299
UTC large
Height (km)
Speed (km/s)
/
Latitude / Longitude
Inclination (degrees)
Orbital Period (minutes)
Azimuth
Elevation
Range (km)
Doppler Factor

Next 0 passes for location: London (51.5072 / 0.1276)

Sorry there are no passes over London.